Regional Weather Roundup
Issued by NWS Sioux Falls, SD

Home | Current Version | Previous Version | Text Only | Print | Product List | Glossary On
Versions: 1 2 3 4 5 6 7 8 9 10 11 12 13 14 15 16 17 18 19 20 21 22 23 24 25 26 27 28 29 30 31 32 33 34 35 36 37 38 39 40 41 42 43 44 45 46 47 48 49 50
000
ASUS43 KFSD 241210
RWRFSD

WEATHER ROUNDUP FOR SE SOUTH DAKOTA/SW MINNESOTA/NW IOWA
NATIONAL WEATHER SERVICE SIOUX FALLS SD
700 AM CDT FRI OCT 24 2014

NOTE: "FAIR" INDICATES FEW OR NO CLOUDS BELOW 12,000 FEET WITH NO
SIGNIFICANT WEATHER AND OR OBSTRUCTIONS TO VISIBILITY.


SDZ038>040-050-052>070-241300-
SOUTHEAST SOUTH DAKOTA

CITY           SKY/WX    TMP DP  RH WIND       PRES   REMARKS
CHAMBERLAIN    CLOUDY    45  36  71 W7        29.88R
6HR MIN TEMP:  44; 6HR MAX TEMP:  49;

HURON          CLOUDY    38  36  92 NW3       29.84S
6HR MIN TEMP:  36; 6HR MAX TEMP:  50;

MADISON        FOG       45  45 100 SW3       29.84S VSB 1/4
MITCHELL       CLOUDY    46  40  79 W7        29.86S
6HR MIN TEMP:  46; 6HR MAX TEMP:  52;

SIOUX FALLS    MOCLDY    52  50  93 SW6       29.85R FOG
6HR MIN TEMP:  50; 6HR MAX TEMP:  56;

WINNER         FAIR      52  33  48 SW7       29.89R
YANKTON        MOCLDY    55  52  88 SW7       29.86R
$$

MNZ071-072-080-081-089-090-097-098-241300-
SOUTHWEST MINNESOTA

CITY           SKY/WX    TMP DP  RH WIND       PRES   REMARKS
FAIRMONT       PTCLDY    50  43  76 S9        29.86F
JACKSON        PTCLDY    52  46  82 S8        29.86F
LUVERNE        MOCLDY    46  45  93 CALM      29.86R FOG
MARSHALL       MOCLDY    54  46  76 W5        29.81F
6HR MIN TEMP:  52; 6HR MAX TEMP:  55;

MONTEVIDEO     MOCLDY    46  45  93 S3        29.83S
PIPESTONE      MOCLDY    48  46  93 SW3       29.84S FOG
REDWOOD FALLS  MOCLDY    46  42  86 SE6       29.83F
TRACY          MOCLDY    53  50  87 SW10      29.82F
WINDOM         MOCLDY    54  48  82 S9        29.84F
WORTHINGTON    PTCLDY    52  48  87 S10       29.87R
$$

IAZ001>003-012>014-020>022-031-032-NEZ013-014-SDZ071-241300-
NORTHWEST IOWA

CITY           SKY/WX    TMP DP  RH WIND       PRES   REMARKS
CHEROKEE       PTCLDY    55  55  99 S6        29.87F
DENISON        PTCLDY    57  57 100 S8G16     29.90F FOG
ESTHERVILLE    PTCLDY    48  45  89 S10       29.86F
LE MARS        PTCLDY    54  52  94 S8        29.87S
ORANGE CITY    PTCLDY    54  50  87 S6        29.87S FOG
SHELDON        PTCLDY    54  52  94 S8        29.85S
SIOUX CITY     PTCLDY    55  53  93 S7        29.88S
6HR MIN TEMP:  50; 6HR MAX TEMP:  56;

SPENCER        PTCLDY    52  49  89 S5        29.87S
6HR MIN TEMP:  46; 6HR MAX TEMP:  53;

STORM LAKE     PTCLDY    57  55  94 S12G18    29.89F
$$

ABBREVIATIONS USED IN REMARKS
   TC - TEMPERATURE IN CELSIUS
  WCI - WIND CHILL INDEX
   HX - HEAT INDEX
  VSB - VISIBILITY




USA.gov is the U.S. government's official web portal to all federal, state and local government web resources and services.